Showing default

SATMAR, 64551

Orbit data source: Space-Track

SATMAR, 64551 is a payload satellite owned by Alen Space (ES) in SSO that was launched on Mon, 23 Jun 2025 UTC via an FALCON 9 launch vehicle from the Air Force Western Test Range (AFWTR). Payload-class satellites include a variety of spacecraft equipped with specific instruments for various scientific and technological missions. These include communications satellites like Starlink; space stations such as the ISS; scientific satellites like the Hubble; Earth observation satellites from companies like Planet Labs, Umbra, and HawkEye 360; GPS; miniature CubeSats for education and research; and military/defense satellites.

Loading next visibility...
Identifier
64551, 2025-135Z
Orbit
SSO
Country
Flag of ESES / SPN
Related business
Manufacturer
Alen Space
Mission
Operational Commercial Communications
Bus & Motor
CUBESAT 6U, Unknown motor
Mass
10 kg wet, 10 kg dry
Launch date (UTC)
2025-06-23 (1 year ago)
Launch vehicle
FALCON 9
Launch site
Air Force Western Test Range (AFWTR)
Object type
Payload
Rocket body
Debris
Shape & HBR
Box, 0.2 m
Radar Cross Section
0.080 m², Medium (>0.1 m² and < 1m²)

Expand to show TLE details & history
Last TLE update: 13 hours ago

TLE from 13 hours ago
0 SATMAR
1 64551U 25135Z   26207.61280249  .00008520  00000-0  33923-3 0  9994
2 64551  97.4644 323.2509 0002672 109.5692 250.5835 15.25489100 60931
Epoch: 2026-07-26T14:42Z
TLE epoch observation values (Epoch: 2026-07-26T14:42:26.135Z)
Latitude
0.00004°
Longitude
158.33378°
Altitude
493.024 km
Speed
7.618 km/s
True Right ascension
21h 33m 00s
True Declination
0° 00' 00"
Sunlit
Object was in full shadow at epoch
Visualization orbit readout
Latitude
Unknown
Longitude
Unknown
Altitude
Unknown
Speed
Unknown
Apparent Right ascension
Unknown
Apparent Declination
Unknown
Sunlit
N/A
Visualization observer readout
Local Sidereal Time
17:28:48
Azimuth
Unknown
Elevation
Unknown
Doppler factor
Unknown
Orbital elements
Apogee altitude
488.112 km
Perigee altitude
484.444 km
Semi-major axis
6,864.415 km
Eccentricity
0.00027
Inclination
97.4644°
RAAN
323.2509°
Arg. of periapsis
109.5692°
True anomaly
250.55463°
Mean anomaly
250.5835°
Eccentric anomaly
250.56906°
Mean motion
3.81626 °/min
Orbital period
94.33 mins
BSTAR
0.00033923
Loading maneuver chart data...
Computing Atmospheric mass density...
Loading historical data...
Loading historical data...
Loading historical data...
Loading historical data...
Loading historical data...
Loading historical data...
Loading historical data...

Documentation

Showing up to 5 results
|